Regional Weather Roundup
Issued by NWS

Home | Current Version | Previous Version | Graphics & Text | Print | Product List | Glossary On
Versions: 1 2 3 4 5 6 7 8 9 10 11 12 13 14 15 16 17 18 19 20 21 22 23 24 25 26 27
000
ASUS45 KBOU 171907
RWRCO

WEATHER ROUNDUP FOR COLORADO
NATIONAL WEATHER SERVICE DENVER/BOULDER CO
100 PM MDT TUE OCT 17 2017

NOTE: "FAIR" INDICATES FEW OR NO CLOUDS BELOW 12000 FEET WITH NO
SIGNIFICANT WEATHER AND/OR OBSTRUCTIONS TO VISIBILITY.

COZ001>005-013-030-031-172000-
...NORTHWEST COLORADO...

CITY           SKY/WX    TMP DP  RH WIND       PRES   REMARKS
CRAIG          FAIR      65   7  10 NE3       30.31F
HAYDEN         FAIR      61   8  12 N6        30.34F
MEEKER         FAIR      65   5   9 CALM      30.32F
RABBIT EARS PA FAIR      46  10  23 W7        30.50F
STEAMBOAT SPGS FAIR      59   5  11 CALM      30.34F
WALDEN         FAIR      59   3  10 SW12G18   30.36F
$$

COZ006>008-011-172000-
...WEST CENTRAL VALLEYS...

CITY           SKY/WX    TMP DP  RH WIND       PRES   REMARKS
GRAND JUNCTION FAIR      62  13  14 CALM      30.31F
MONTROSE       FAIR      61  17  18 NW6       30.35F
EAGLE          FAIR      55  10  16 CALM      30.37F
RIFLE          FAIR      59  10  14 CALM      30.32F
DELTA          FAIR      63  13  14 CALM      30.32F
NUCLA          NOT AVBL
$$

COZ017>023-064>068-172000-
...SOUTHWEST COLORADO...

CITY           SKY/WX    TMP DP  RH WIND       PRES   REMARKS
DURANGO        FAIR      65  10  11 W5        30.36F
CORTEZ         FAIR      67  10  11 S12       30.34F
PAGOSA SPRINGS FAIR      63   6  10 S3        30.40F
TELLURIDE      FAIR      62  -7   6 SW7       30.48F
WOLF CREEK PAS FAIR      48  10  21 SW8       30.65F
$$

COZ009-010-012-014-032>034-037-058>063-172000-
...CENTRAL COLORADO...

CITY           SKY/WX    TMP DP  RH WIND       PRES   REMARKS
ASPEN          FAIR      63   0   8 N10       30.38F
BUENA VISTA    FAIR      63   0   8 CALM      30.35F
COPPER MTN     FAIR      46 -24   4 W17G23    30.57F
BERTHOUD PASS  FAIR      36  28  75 NW12G24   30.59S
COTTONWOOD PAS FAIR      64  -8   5 E8        30.46F
GUNNISON       FAIR      54   8  16 CALM      30.42F
KREMMLING      FAIR      61   5  11 E5        30.38F
LEADVILLE      FAIR      55 -11   6 NW12G21   30.45F
MONARCH PASS   FAIR      43   1  17 W14G23    30.70F
SALIDA         NOT AVBL
SUNLIGHT       FAIR      48   3  15 SW6       30.57F
WILKERSON PASS FAIR      52   0  11 NW3       30.55F
$$

COZ069>075-172000-
...SAN LUIS VALLEY/SANGRE DE CRISTO MOUNTAINS...

CITY           SKY/WX    TMP DP  RH WIND       PRES   REMARKS
ALAMOSA        FAIR      61   8  12 VRB3      30.38F
DEL NORTE      FAIR      61  14  16 SE6       30.40F
LA VETA PASS   FAIR      57  12  17 S17G28    30.59F
SAGUACHE       FAIR      64  12  13 SW6       30.39F
$$

COZ035-036-038>040-172000-
...NORTHERN COLORADO FRONT RANGE...

CITY           SKY/WX    TMP DP  RH WIND       PRES   REMARKS
DENVER INTL AP FAIR      74   7   7 VRB5      30.18F
DMNS CITY PARK   N/A     75  15  10 E3G12     30.17F
AURORA         MOSUNNY   74   6   7 S5        30.20F
FRONT RANGE AP MOSUNNY   75   9   7 CALM      30.20F
ERIE MUNI ARPT FAIR      75  10   8 SE5       30.22F
BOULDER MUN AP FAIR      73  21  14 E5        30.17F
CENTENNIAL     FAIR      72   2   6 CALM      30.20F
BROOMFIELD     MOSUNNY   73  12   9 SE8       30.20F
FORT COLLINS   FAIR      69  29  22 VRB3      30.17F
LONGMONT       FAIR      73  26  17 E3        30.18F
$$

COZ041-046-047-076>085-087-088-172000-
...PIKES PEAK/PALMER DIVIDE AND SOUTHERN FOOTHILLS...

CITY           SKY/WX    TMP DP  RH WIND       PRES   REMARKS
COLO. SPRINGS  FAIR      71  15  11 SE8       30.25F
A. F. ACADEMY  FAIR      69   8   9 SE6       30.25F
SCHRIEVER AFB  FAIR      70  13  11 S7        30.25F
CHEYENNE MTN   FAIR      67  11  11 SE7       30.23F
ELLICOTT       FAIR     N/A N/A N/A S8        30.23F
FALCON         FAIR      70  11  10 SE7       30.29F
FORT CARSON    FAIR      71   8   8 E7        30.22F
LIMON          FAIR      73  15  11 S13G22    30.20F
MONUMENT HILL  FAIR      66   5   9 SE3       30.29F
CANON CITY     SUNNY     77   5   6 W3        30.19F
WALSENBURG     NOT AVBL
TRINIDAD       FAIR      74  14  10 VRB3      30.23F
$$

COZ042>045-048>051-090-091-172000-
...NORTHEAST COLORADO...

CITY           SKY/WX    TMP DP  RH WIND       PRES   REMARKS
GREELEY ARPT   FAIR      71  26  18 S6        30.16F
AKRON          FAIR      75  14  10 S12       30.17F
BURLINGTON     FAIR      77  17  10 MISG      30.15F
WRAY           FAIR      77  21  12 S6        30.13F
YUMA           NOT AVBL
STERLING       FAIR      73  27  17 SW12      30.11F
HOLYOKE        FAIR      81  21  11 S8        30.12F
FORT MORGAN    FAIR      77  15  10 S9        30.15F
$$

COZ086-089-092>099-172000-
...SOUTHEAST COLORADO...

CITY           SKY/WX    TMP DP  RH WIND       PRES   REMARKS
PUEBLO         FAIR      75  14  10 VRB7      30.16F
LA JUNTA       FAIR      75  22  13 SE6       30.16F
LAMAR          FAIR      75  25  15 CALM      30.13F
SPRINGFIELD      N/A     74  31  20 E7        30.14F
$$




USA.gov is the U.S. government's official web portal to all federal, state and local government web resources and services.